Location: Seattle
(47.6064°N, 122.3308°W)
Time: 04:40:50
(UTC-07:00)

ITUPSAT 1 - Visible Passes

Search period start: 02 April 2023 00:00
Search period end: 12 April 2023 00:00
Orbit: 699 x 709 km, 98.5° (Epoch: 01 April)

Date Brightness Start Highest point End Pass type
(mag) Time Alt. Az. Time Alt. Az. Time Alt. Az.
02 Apr ? 00:26:43 10° NW 00:27:33 10° NW 00:28:23 10° WNW visible
02 Apr ? 21:51:42 10° NNE 21:55:18 36° ENE 21:55:18 36° ENE visible
02 Apr ? 23:29:47 10° N 23:33:50 28° WNW 23:34:15 27° WNW visible
03 Apr ? 20:59:01 10° ENE 21:00:23 13° ENE 21:00:23 13° ENE visible
03 Apr ? 22:34:51 10° NNE 22:39:18 74° NNW 22:39:18 74° NNW visible
04 Apr ? 00:14:31 10° NNW 00:16:39 13° NW 00:18:15 11° WNW visible
04 Apr ? 21:40:47 10° NNE 21:44:22 31° ENE 21:44:22 31° ENE visible
04 Apr ? 23:18:31 10° N 23:22:50 34° WNW 23:23:18 33° WNW visible
05 Apr ? 22:23:46 10° NNE 22:28:22 77° ENE 22:28:22 77° ENE visible
06 Apr ? 00:02:52 10° NNW 00:05:43 16° WNW 00:07:18 14° W visible
06 Apr ? 21:29:55 10° NE 21:33:25 25° E 21:33:25 25° E visible
06 Apr ? 23:07:17 10° N 23:11:48 42° WNW 23:12:21 41° W visible
07 Apr ? 22:12:42 10° NNE 22:17:24 63° E 22:17:24 63° E visible
07 Apr ? 23:51:23 10° NNW 23:54:46 19° WNW 23:56:20 17° W visible
08 Apr ? 21:19:08 10° NE 21:22:26 20° E 21:22:26 20° E visible
08 Apr ? 22:56:05 10° N 23:00:45 54° WNW 23:01:22 50° W visible
09 Apr ? 22:01:39 10° NNE 22:06:18 49° E 22:06:25 49° ESE visible
09 Apr ? 23:40:00 10° N 23:43:45 24° WNW 23:45:21 20° W visible
10 Apr ? 21:08:29 10° NE 21:11:26 16° E 21:11:27 16° E visible
10 Apr ? 22:44:53 10° N 22:49:40 68° WNW 22:50:22 58° WSW visible
11 Apr ? 00:25:18 10° NW 00:26:31 11° NW 00:27:43 10° WNW visible
11 Apr ? 21:50:39 10° NNE 21:55:08 38° E 21:55:25 38° ESE visible
11 Apr ? 23:28:38 10° N 23:32:44 29° WNW 23:34:20 24° W visible
